Location: Armidale
(30.5016°S, 151.6662°E)
Time: 11:03:02
(UTC+10:00)

N. Korean satellite - Pass Details

Date: 23 May 2021
Orbit: 450 x 500 km, 97.2° (Epoch: 13 June)

Event Time Altitude Azimuth Distance (km) Brightness Sun altitude
Rises 04:05:40 0° 31° (NNE) 2,495 10.6 -32.2°
Reaches altitude 10° 04:07:49 10° 41° (NE) 1,637 9.7 -31.8°
Enters shadow 04:07:56 11° 42° (NE) 1,589 9.7 -31.7°
